Walla Walla, WA

1:36 PM PDT on July 25, 2017 (GMT -0700)
Walla Walla Regional

Weather History for KALW - August, 2013

Change the Weather History Date:

Thursday, August 29, 2013

  Actual Average Record
Temperature  
Mean Temperature 78 °F 71 °F  
Max Temperature 90 °F 84 °F 102 °F (1967)
Min Temperature 68 °F 58 °F 45 °F (1980)
Degree Days  
Heating Degree Days 0 1  
Month to date heating degree days 2  
Since 1 June heating degree days 70  
Since 1 July heating degree days 8  
Cooling Degree Days 14 7  
Month to date cooling degree days 282  
Year to date cooling degree days 741  
Since 1 June cooling degree days 706  
Growing Degree Days 28 (Base 50)    
Moisture  
Dew Point 50 °F    
Average Humidity 41    
Maximum Humidity 53    
Minimum Humidity 25    
Precipitation  
Precipitation 0.00 in 0.02 in 0.66 in (1977)
Month to date precipitation 0.53  
Year to date precipitation 13.04  
Snow  
Snow 0.00 in 0.00 in 0.00 in (2002)
Month to date snowfall 0.0  
Year to date snowfall 6.0  
Since 1 July snowfall 0.0  
Snow Depth -    
Sea Level Pressure  
Sea Level Pressure 29.90 in    
Wind  
Wind Speed 6 mph (SSW)    
Max Wind Speed 16 mph    
Max Gust Speed 22 mph    
Visibility 10 miles    
Events      
T = Trace of Precipitation, MM = Missing Value Source: NWS Daily Summary

Daily Weather History Graph

Daily Weather History Graph

Search for Another Location

Airport or City:

Trip Planner

Search our weather history database for the weather conditions in past years. The results will help you decide how hot, cold, wet, or windy it might be!

Date:

Astronomy

Aug. 29, 2013 Rise Set
Actual Time 6:10 AM PDT 7:36 PM PDT
Civil Twilight 5:39 AM PDT 8:07 PM PDT
Nautical Twilight 5:01 AM PDT 8:45 PM PDT
Astronomical Twilight 4:20 AM PDT 9:25 PM PDT
Moon No Moon Rise 3:19 PM PDT (8/29)
Length of Visible Light 14h 28m
Length of Day
13h 26m
Last Quarter, 37% of the Moon is Illuminated
Aug 29
Last Quarter
Sep 5
New
Sep 12
First Quarter
Sep 19
Full
Sep 26
Last Quarter

Hourly Weather History & Observations

Time (PDT) Temp. Heat Index Dew Point Humidity Pressure Visibility Wind Dir Wind Speed Gust Speed Precip Events Conditions
12:53 AM 70.0 °F - 46.9 °F 44% 29.81 in 10.0 mi SE 3.5 mph - N/A   Clear
1:53 AM 71.1 °F - 46.0 °F 41% 29.81 in 10.0 mi South 9.2 mph - N/A   Clear
2:53 AM 70.0 °F - 51.1 °F 51% 29.82 in 10.0 mi South 11.5 mph - N/A   Clear
3:53 AM 68.0 °F - 48.0 °F 49% 29.83 in 10.0 mi South 6.9 mph - N/A   Clear
4:53 AM 69.1 °F - 51.1 °F 53% 29.82 in 10.0 mi South 6.9 mph - N/A   Clear
5:53 AM 68.0 °F - 50.0 °F 52% 29.83 in 10.0 mi South 5.8 mph - N/A   Clear
6:53 AM 69.1 °F - 50.0 °F 51% 29.86 in 10.0 mi South 4.6 mph - N/A   Clear
7:53 AM 69.1 °F - 50.0 °F 51% 29.87 in 6.0 mi SSE 3.5 mph - N/A   Haze
8:53 AM 73.0 °F - 51.1 °F 46% 29.89 in 10.0 mi South 6.9 mph - N/A   Clear
9:53 AM 73.9 °F - 52.0 °F 46% 29.90 in 10.0 mi SSW 6.9 mph - 0.00 in   Partly Cloudy
10:53 AM 75.0 °F - 54.0 °F 48% 29.89 in 10.0 mi SW 3.5 mph - 0.00 in   Clear
11:53 AM 77.0 °F - 54.0 °F 45% 29.91 in 10.0 mi South 3.5 mph - N/A   Clear
12:53 PM 80.1 °F 80.0 °F 54.0 °F 40% 29.91 in 10.0 mi Calm Calm - N/A   Clear
1:53 PM 84.0 °F - 48.0 °F 28% 29.90 in 10.0 mi SW 4.6 mph - N/A   Clear
2:53 PM 89.1 °F - 51.1 °F 27% 29.91 in 10.0 mi WNW 16.1 mph 21.9 mph N/A   Clear
3:53 PM 89.1 °F - 51.1 °F 27% 29.91 in 10.0 mi WSW 8.1 mph 17.3 mph N/A   Clear
4:53 PM 88.0 °F - 50.0 °F 27% 29.91 in 10.0 mi SW 6.9 mph - N/A   Clear
5:53 PM 89.1 °F - 48.9 °F 25% 29.91 in 10.0 mi West 10.4 mph - N/A   Clear
6:53 PM 86.0 °F - 48.9 °F 28% 29.91 in 10.0 mi NW 9.2 mph - N/A   Clear
7:53 PM 79.0 °F - 48.9 °F 35% 29.94 in 10.0 mi WNW 6.9 mph - N/A   Clear
8:53 PM 75.9 °F - 48.9 °F 38% 29.99 in 10.0 mi Calm Calm - N/A   Clear
9:53 PM 77.0 °F - 51.1 °F 40% 30.02 in 10.0 mi Calm Calm - N/A   Overcast
10:53 PM 75.9 °F - 51.1 °F 42% 30.03 in 10.0 mi South 3.5 mph - N/A   Mostly Cloudy
11:53 PM 73.0 °F - 52.0 °F 48% 30.04 in 10.0 mi Calm Calm - N/A   Partly Cloudy